Flag for Japan Weather past 2 weeks in Nagano, Japan

Now
53 °F

Cool.


Feels Like: 52 °F
Forecast: 48 / 59 °F
Wind: 6 mph from East

Location: Nagano

Current Time: Oct 22, 2014 at 2:40:16 PM

Latest Report: Oct 22, 2014 at 2:00 PM


Visibility: N/A

Pressure: 29.95 "Hg

Humidity: 88%

Dew point: 50 °F

Location of NaganoLocation

Historic Weather in Nagano — Graph

°F

Nagano temperature yesterday

Maximum temperature yesterday: 66 °F (at 3:00 PM)
Minimum temperature yesterday: 53 °F (at 4:00 AM)
Average temperature yesterday: 58 °F

Past Weeks' High & Low Weather Summary

 TemperatureHumidityPressure
High74 °F (Oct 9, 3:00 PM)97% (Oct 13, 11:00 PM)30.43 "Hg (Oct 13, 11:00 PM)
Low39 °F (Oct 18, 6:00 AM)29% (Oct 19, 3:00 PM)29.21 "Hg (Oct 14, 1:00 AM)
Average58 °F74%30.09 "Hg
* Reported Oct 7 1:00 PM — Oct 22 1:00 PM, Nagano, Weather by CustomWeather, © 2014

Note: Actual official high and low records may vary slightly from our data, if they occured in-between our weather recording intervals... More about our weather records

Advertising

Nagano weather history for previous 24 hours

 ConditionsComfort  
Time TempWeatherWind HumidityBarometerVisibility
1:00 PM
Oct 22
53 °FCool.10 mph87%29.93 "HgN/A
12:00 PM54 °FCool.7 mph86%29.95 "HgN/A
11:00 AM54 °FCool.7 mph87%29.96 "HgN/A
10:00 AM54 °FCool.5 mph92%29.98 "HgN/A
9:00 AM53 °FLight rain. Overcast.7 mph93%29.98 "Hg6 mi
8:00 AM54 °FCool.9 mph84%29.99 "HgN/A
7:00 AM55 °FCool.12 mph80%29.97 "HgN/A
6:00 AM54 °FCool.6 mph85%29.95 "HgN/A
5:00 AM54 °FCool.7 mph90%29.96 "HgN/A
4:00 AM54 °FCool.8 mph89%29.94 "HgN/A
3:00 AM55 °FLight rain. Overcast.8 mph86%29.96 "Hg6 mi
2:00 AM55 °FCool.9 mph87%29.94 "HgN/A
1:00 AM58 °FCool.12 mph82%29.93 "HgN/A
12:00 AM59 °FCool.6 mph95%29.92 "HgN/A
11:00 PM
Oct 21
58 °FCool.2 mph95%29.92 "HgN/A
10:00 PM59 °FCool.2 mph92%29.92 "HgN/A
9:00 PM59 °FLight rain. Overcast.1 mph93%29.94 "Hg9 mi
8:00 PM59 °FCool.2 mph91%29.93 "HgN/A
7:00 PM61 °FCool.3 mph90%29.92 "HgN/A
6:00 PM63 °FMild.1 mph86%29.92 "HgN/A
5:00 PM64 °FMild.3 mph84%29.91 "HgN/A
4:00 PM65 °FMild.3 mph82%29.91 "HgN/A
3:00 PM66 °FOvercast.1 mph72%29.92 "Hg12 mi
2:00 PM65 °FMild.3 mph76%29.94 "HgN/A
Weather by CustomWeather, © 2014

See weather overviewHow to use our weather pages